This demonstration page uses our WeatherBlox Daily Observations layout. Learn more.

Left ArrowRight Arrow

30.21309, -93.2044

Hourly Observations for August 1, 2022

Temp ( °F °C ) Dew Point ( °F °C ) Humidity (%) Winds ( mph kmh ) Pressure ( in mb ) Visibility ( mi km ) Precip ( " mm )
12:15 am 00:15 Clear 77 24.8 73 23 90 90 ESE 5 7 30.11 1020 10 16 0.00 0.00
12:35 am 00:35 Clear 76 24.5 73 22.9 91 91 ESE 5 7 30.10 1019 10 16 0.00 0.00
12:55 am 00:55 Clear 75 24 73 23 94 94 E 6 9 30.10 1019 10 16 0.00 0.00
1:15 am 01:15 Clear 76 24.5 73 23 91 91 SE 6 9 30.10 1019 10 16 0.00 0.00
1:35 am 01:35 Clear 76 24.6 74 23.3 93 93 S 5 7 30.09 1019 10 16 0.00 0.00
1:55 am 01:55 Clear 76 24.6 74 23.3 93 93 Calm 30.09 1019 10 16 0.00 0.00
2:15 am 02:15 Clear 77 24.9 74 23.3 91 91 ENE 3 6 30.09 1019 10 16 0.00 0.00
2:35 am 02:35 Partly Cloudy 76 24.7 74 23.2 91 91 E 3 6 30.09 1019 10 16 0.00 0.00
2:55 am 02:55 Partly Cloudy 76 24.4 74 23.1 92 92 E 3 6 30.09 1019 10 16 0.00 0.00
3:15 am 03:15 Clear 76 24.2 74 23.1 94 94 ESE 6 9 30.08 1019 10 16 0.00 0.00
3:35 am 03:35 Partly Cloudy 76 24.5 74 23.4 94 94 ESE 6 9 30.08 1019 10 16 0.00 0.00
3:55 am 03:55 Mostly Cloudy with Light Rain 77 25 75 23.7 93 93 SSE 7 11 30.08 1019 10 16 0.01 0.25
4:15 am 04:15 Partly Cloudy 76 24.7 74 23.5 93 93 SE 6 9 30.08 1019 10 16 0.00 0.00
4:35 am 04:35 Partly Cloudy 77 24.8 74 23.6 93 93 SE 8 13 30.08 1019 10 16 0.00 0.00
4:55 am 04:55 Partly Cloudy 78 25.5 75 23.7 90 90 S 12 19 30.08 1019 10 16 0.00 0.00
5:15 am 05:15 Mostly Cloudy 77 25 75 23.7 93 93 SE 3 6 30.08 1019 10 16 0.00 0.00
5:35 am 05:35 Partly Cloudy 76 24.5 74 23.4 94 94 SE 6 9 30.08 1019 10 16 0.00 0.00
6:00 am 06:00 Mostly Clear 75 24 73 23 94 94 Calm 30.08 1019 10 16 0.00 0.00
6:45 am 06:45 Partly Cloudy 75 24 73 23 94 94 Calm 30.09 1019 10 16 0.00 0.00
7:55 am 07:55 Partly Cloudy 79 26 75 24 89 89 Calm 30.11 1020 10 16 0.00 0.00
8:47 am 08:47 Partly Cloudy 79 26 75 24 89 89 Calm 30.11 1020 10 16 0.00 0.00
9:53 am 09:53 Mostly Cloudy with Showers 84 29 77 25 79 79 Calm 30.13 1020 7 11 0.00 0.00
10:53 am 10:53 Mostly Cloudy 86 30 75 24 70 70 SSW 8 13 30.13 1020 10 16 0.00 0.00
11:50 am 11:50 Mostly Cloudy 90 32 73 23 59 59 SSW 14 22 30.12 1020 10 16 0.00 0.00
12:51 pm 12:51 Mostly Cloudy 91 33 72 22 52 52 SW 15 24 30.11 1020 10 16 0.00 0.00
1:50 pm 13:50 Partly Cloudy 91 33 73 23 56 56 SW 12 19 30.09 1019 10 16 0.00 0.00
2:55 pm 14:55 Partly Cloudy 91 33 73 23 56 56 SSW 10 17 30.07 1018 10 16 0.00 0.00
3:49 pm 15:49 Partly Cloudy 91 33 75 24 59 59 SSW 14 22 30.06 1018 10 16 0.00 0.00
4:53 pm 16:53 Partly Cloudy 91 33 75 24 59 59 S 12 19 30.05 1018 10 16 0.00 0.00
5:53 pm 17:53 Partly Cloudy 91 33 73 23 56 56 SSW 15 24 30.06 1018 10 16 0.00 0.00
6:49 pm 18:49 Mostly Sunny 90 32 75 24 63 63 SSW 10 17 30.06 1018 10 16 0.00 0.00
7:55 pm 19:55 Mostly Sunny 86 30 73 23 66 66 SSW 9 15 30.05 1018 10 16 0.00 0.00
8:53 pm 20:53 Mostly Clear 81 27 75 24 84 84 SSE 6 9 30.05 1018 10 16 0.00 0.00
9:50 pm 21:50 Mostly Clear 81 27 75 24 84 84 S 6 9 30.06 1018 10 16 0.00 0.00
10:15 pm 22:15 Clear 82 27.5 76 24.2 82 82 SSW 6 9 30.07 1018 10 16 0.00 0.00
10:35 pm 22:35 Clear 82 27.8 75 24.1 80 80 SSW 5 7 30.07 1018 10 16 0.00 0.00
10:55 pm 22:55 Clear 80 26.4 76 24.2 88 88 Calm 30.07 1018 10 16 0.00 0.00
11:15 pm 23:15 Clear 79 26 75 24.1 89 89 SE 6 9 30.07 1018 10 16 0.00 0.00
11:35 pm 23:35 Clear 78 25.8 75 24 90 90 SSE 6 9 30.06 1018 10 16 0.00 0.00
11:55 pm 23:55 Clear 78 25.5 75 23.9 91 91 SSE 3 6 30.06 1018 10 16 0.00 0.00

Powered by AerisWeather